sat.trackr.live / text

‹ back to catalog

YAOGAN-35 05B

NORAD 53761 · 2022-109B

PAYLOAD ACTIVE UNKNOWN

§ Identity

Operator
Country
PRC
Launch date
2022-09-06
Launch site
XICLF
Launch vehicle
Mass (kg)
RCS (m²)

External: N2YO · Heavens-Above · Gunter

§ Orbital elements

Epoch: 2026-09-20T20:44:39.553152Z

Period
93.38 min
Inclination
34.9773°
Eccentricity
0.0004815
Mean motion
15.42149350 rev/d
Perigee alt
436.5 km
Apogee alt
443.0 km
Semi-major
6,817.9 km
B*
3.1889e-4
RAAN
50.9599°
Arg perigee
358.1040°
Mean anomaly
1.9661°
Rev number
22,563

§ Raw data

YAOGAN-35 05B1 53761U 22109B   26263.86434668  .00014043  00000+0  31889-3 0  99932 53761  34.9773  50.9599 0004815 358.1040   1.9661 15.42149350225638

JSON: /api/v1/satellites/53761 · /tle

For live sub-satellite position, see the globe view (requires WebGL).

§ Visibility from observer

Set your observer location to see the next 7 days of passes ≥ 10°. The values pass through the URL so the page stays shareable.

No JS? Fill the form by hand. The geolocation button needs JavaScript.